Regional Weather Roundup
Issued by NWS

Home | Current Version | Previous Version | Text Only | Print | Product List | Glossary On
Versions: 1 2 3 4 5 6 7 8 9 10 11 12 13 14 15 16 17 18 19 20 21 22 23 24 25 26 27 28 29 30 31 32 33 34 35 36 37 38 39 40 41 42 43 44 45 46 47 48 49 50
823
ASUS44 KLIX 271310
RWRLA
LOUISIANA WEATHER ROUNDUP
NATIONAL WEATHER SERVICE NEW ORLEANS LA
700 AM CST TUE JAN 27 2015

NOTE: "FAIR" INDICATES FEW OR NO CLOUDS BELOW 12,000 FEET WITH NO
      SIGNIFICANT WEATHER AND/OR OBSTRUCTIONS TO VISIBILITY.
      SKY/WX - SKY CONDITION AND SIGNIFICANT WEATHER.
      TMP - AIR TEMPERATURE.    DP   - DEWPOINT TEMPERATURE.
      RH  - RELATIVE HUMIDITY.  PRES - PRESSURE.
      HX  - HEAT INDEX.         WCI  - WIND CHILL INDEX.

*  THESE STATIONS ARE NOT NWS OR FAA STATIONS AND ARE NOT UNDER
   NWS QUALITY CONTROL.

LAZ040-048-061>063-065-066-069-271400-
SOUTHEAST LOUISIANA

CITY           SKY/WX    TMP DP  RH WIND       PRES   REMARKS
N.O. AUDUBON     N/A     44  46 100 MISG        N/A
N.O. INTL ARPT PTCLDY    48  40  73 W3        30.09R
N.O. LAKEFRONT CLEAR     53  45  74 W7        30.09R
N.O. DOWNTOWN* FAIR      48  39  71 CALM      30.09R
SLIDELL        CLEAR     46  39  76 CALM      30.08R
BATON ROUGE    CLEAR     39  36  89 CALM      30.09R
BOOTHVILLE     CLEAR     51  46  83 W7        30.10R
BELLE CHASSE   PTCLDY    47  41  80 CALM      30.09R
BOGALUSA*        N/A     37  34  90 CALM      30.09R
GALLIANO*      SUNNY     52  47  83 MISG      30.10S
NEW ROADS*     FAIR      37  36  95 CALM      30.10R
GONZALES*      FAIR      41  41 100 CALM      30.09R
HAMMOND*       CLEAR     41  37  87 CALM      30.10R
HOUMA*         CLEAR     46  45  93 SW6       30.10R
PORT FOURCHON* SUNNY     54  50  87 W8        30.14R

$$

LAZ041-044-053-054-271400-
SOUTHWEST LOUISIANA

CITY           SKY/WX    TMP DP  RH WIND       PRES   REMARKS
LAKE CHARLES   CLEAR     44  41  89 SW5       30.10R
LAFAYETTE      CLEAR     48  44  86 W5        30.10R
PATTERSON      CLEAR     52  46  82 W8        30.10S
SALT POINT       N/A     51  49  92 W3        30.10R
NEW IBERIA     CLEAR     48  44  86 W5        30.10R
CHENAULT AIRPK NOT AVBL

$$

LAZ027-028-271400-
CENTRAL LOUISIANA

CITY           SKY/WX    TMP DP  RH WIND       PRES   REMARKS
FORT POLK      CLEAR     45  38  78 NW5       30.09R
ALEXANDRIA INT CLEAR     40  37  89 NW3       30.08R
ALEXANDRIA     CLEAR     40  37  89 CALM      30.08R

$$

LAZ001-002-271400-
NORTHWEST LOUISIANA

CITY           SKY/WX    TMP DP  RH WIND       PRES   REMARKS
SHREVEPORT     CLEAR     38  35  89 CALM      30.09R
BARKSDALE AFB  CLEAR     36  34  92 CALM      30.10R
DTN SHREVEPORT CLEAR     39  35  86 CALM      30.10R

$$

LAZ014-016-271400-
NORTHEAST LOUISIANA

CITY           SKY/WX    TMP DP  RH WIND       PRES   REMARKS
MONROE         CLEAR     44  36  73 N5        30.09R
TALLULAH       CLEAR     34  32  92 CALM      30.09R

$$




USA.gov is the U.S. government's official web portal to all federal, state and local government web resources and services.